EW5209 Weather Reports


time (UTC)temp
F
wind
direction
speed
knots
gust
knots
rain 1hr
in
rain 24hr
in
rain mn
in
humidity
%
barometer
mb
20260505224301 85 264 3.5 9.6 0.00 0.00 0.00 70 1004.0
20260505223801 85 191 3.5 8.7 0.00 0.00 0.00 70 1004.1
20260505223301 85 251 4.3 11.3 0.00 0.00 0.00 70 1004.1
20260505222802 84 191 4.3 11.3 0.00 0.00 0.00 70 1003.8
20260505222301 85 109 4.3 13.0 0.00 0.00 0.00 69 1003.7
20260505221758 85 191 4.3 13.0 0.00 0.00 0.00 69 1003.8
20260505221305 85 207 3.5 13.0 0.00 0.00 0.00 68 1003.9
20260505221300 85 224 4.3 13.0 0.00 0.00 0.00 70 1003.8
20260505220258 86 231 3.5 9.6 0.00 0.00 0.00 68 1003.6
20260505215803 86 140 4.3 11.3 0.00 0.00 0.00 68 1003.9
20260505215758 86 207 4.3 11.3 0.00 0.00 0.00 68 1003.7
20260505215257 86 193 4.3 11.3 0.00 0.00 0.00 68 1003.8
20260505214254 86 162 3.5 11.3 0.00 0.00 0.00 67 1003.9
20260505213910 86 92 3.5 10.4 0.00 0.00 0.00 67 1004.1
20260505213758 86 160 3.5 10.4 0.00 0.00 0.00 68 1004.0
20260505213753 86 116 2.6 9.6 0.00 0.00 0.00 68 1004.0
20260505212248 86 206 4.3 12.2 0.00 0.00 0.00 69 1004.2
20260505211749 86 182 4.3 12.2 0.00 0.00 0.00 68 1004.2
20260505211253 85 118 4.3 10.4 0.00 0.00 0.00 67 1004.1
20260505211249 86 234 4.3 11.3 0.00 0.00 0.00 68 1004.0
20260505210908 85 187 5.2 10.4 0.00 0.00 0.00 69 1004.2
20260505205754 85 169 4.3 13.0 0.00 0.00 0.00 68 1004.4
20260505205749 85 242 5.2 10.4 0.00 0.00 0.00 68 1004.3
20260505204748 86 172 4.3 13.0 0.00 0.00 0.00 67 1004.4
20260505204248 85 139 5.2 13.9 0.00 0.00 0.00 69 1004.4
20260505203748 85 200 4.3 13.9 0.00 0.00 0.00 67 1004.5
20260505203248 85 187 4.3 13.9 0.00 0.00 0.00 69 1004.5
20260505202747 85 67 4.3 13.9 0.00 0.00 0.00 69 1004.7
20260505202246 85 236 4.3 9.6 0.00 0.00 0.00 69 1004.7
20260505201747 85 130 4.3 12.2 0.00 0.00 0.00 70 1004.8
20260505201245 85 158 4.3 12.2 0.00 0.00 0.00 69 1004.8
20260505200744 84 224 4.3 12.2 0.00 0.00 0.00 70 1004.8
20260505200246 84 215 5.2 12.2 0.00 0.00 0.00 70 1004.8
20260505195744 84 221 5.2 12.2 0.00 0.00 0.00 71 1004.8
20260505195245 84 148 5.2 11.3 0.00 0.00 0.00 70 1004.8
20260505194744 84 122 5.2 13.0 0.00 0.00 0.00 70 1004.8
20260505194245 84 249 4.3 13.0 0.00 0.00 0.00 70 1004.9
20260505193743 83 156 5.2 12.2 0.00 0.00 0.00 72 1005.0
20260505193244 83 205 5.2 12.2 0.00 0.00 0.00 71 1004.9
20260505192742 83 170 4.3 12.2 0.00 0.00 0.00 71 1004.9
20260505192242 83 211 4.3 10.4 0.00 0.00 0.00 70 1005.1
20260505191748 83 145 6.1 13.0 0.00 0.00 0.00 71 1005.2
20260505191743 83 217 5.2 12.2 0.00 0.00 0.00 72 1005.1
20260505190740 83 235 4.3 13.0 0.00 0.00 0.00 71 1005.2
20260505190242 83 223 5.2 13.0 0.00 0.00 0.00 72 1005.2
20260505185741 82 207 5.2 13.0 0.00 0.00 0.00 71 1005.2
20260505185241 82 203 5.2 13.0 0.00 0.00 0.00 72 1005.3
20260505184745 82 127 4.3 12.2 0.00 0.00 0.00 73 1005.5
20260505184739 83 213 4.3 12.2 0.00 0.00 0.00 71 1005.4
20260505184405 81 226 5.2 15.6 0.00 0.00 0.00 73 1005.6
20260505184359 82 150 5.2 15.6 0.00 0.00 0.00 73 1005.6
20260505182738 82 223 5.2 15.6 0.00 0.00 0.00 73 1005.7
20260505182238 81 203 7.0 15.6 0.00 0.00 0.00 74 1005.7
20260505181740 80 194 7.0 15.6 0.00 0.00 0.00 73 1005.7
20260505181240 81 257 7.0 17.4 0.00 0.00 0.00 73 1005.7
20260505180740 80 170 6.1 17.4 0.00 0.00 0.00 74 1005.6
20260505180247 80 210 7.0 17.4 0.00 0.00 0.00 74 1005.5
20260505180239 80 146 6.1 17.4 0.00 0.00 0.00 75 1005.6
20260505175238 80 202 6.1 15.6 0.00 0.00 0.00 73 1005.4
20260505174743 81 113 5.2 13.9 0.00 0.00 0.00 73 1005.4
20260505174739 81 155 6.1 14.8 0.00 0.00 0.00 73 1005.5
20260505173737 81 226 6.1 17.4 0.00 0.00 0.00 74 1005.6
20260505173238 80 213 7.0 17.4 0.00 0.00 0.00 74 1005.5
20260505172738 80 216 7.0 15.6 0.00 0.00 0.00 75 1005.5
20260505172234 80 158 7.0 15.6 0.00 0.00 0.00 75 1005.6
20260505171735 79 231 7.0 17.4 0.00 0.00 0.00 75 1005.6
20260505171232 79 190 6.1 17.4 0.00 0.00 0.00 76 1005.7
20260505170732 79 222 7.0 17.4 0.00 0.00 0.00 76 1005.6
20260505170237 79 215 7.8 19.1 0.00 0.00 0.00 75 1005.6
20260505170232 79 210 7.0 19.1 0.00 0.00 0.00 75 1005.5
20260505165234 79 214 7.8 19.1 0.00 0.00 0.00 75 1005.5
20260505164733 79 207 7.8 19.1 0.00 0.00 0.00 75 1005.9
20260505164232 79 187 7.8 17.4 0.00 0.00 0.00 76 1005.7
20260505163738 78 154 6.1 15.6 0.00 0.00 0.00 77 1005.7
20260505163732 78 248 7.0 16.5 0.00 0.00 0.00 76 1006.0
20260505163356 78 151 6.1 15.6 0.00 0.00 0.00 77 1005.9
20260505163232 78 116 6.1 16.5 0.00 0.00 0.00 76 1005.9
20260505161730 78 229 7.0 15.6 0.00 0.00 0.00 77 1005.7
20260505161231 78 183 7.0 15.6 0.00 0.00 0.00 78 1005.7
20260505160730 77 190 7.0 15.6 0.00 0.00 0.00 78 1005.6
20260505160231 77 176 6.1 15.6 0.00 0.00 0.00 78 1005.7
20260505153228 77 246 5.2 13.0 0.00 0.00 0.00 78 1005.9
20260505152726 76 148 4.3 15.6 0.00 0.00 0.00 78 1006.0
20260505152226 76 269 4.3 15.6 0.00 0.00 0.00 79 1006.1
20260505151726 76 150 6.1 15.6 0.00 0.00 0.00 80 1006.0
20260505151227 76 72 7.0 15.6 0.00 0.00 0.00 80 1005.7
20260505150726 76 148 6.1 16.5 0.00 0.00 0.00 80 1005.7
20260505150227 76 197 7.0 16.5 0.00 0.00 0.00 80 1005.5
20260505130220 72 256 4.3 12.2 0.00 0.00 0.00 83 1005.1
20260505124220 72 212 3.5 9.6 0.00 0.00 0.00 83 1005.0
20260505123718 0 0.0 0.0 0.00 0.00 0.00 1005.0
20260505123219 0 0.0 0.0 0.00 0.00 0.00 1004.9
20260505122711 0 0.0 0.0 0.00 0.00 0.00 1004.7
20260505122122 0 0.0 0.0 0.00 0.00 0.00 1004.8
20260505122024 0 0.0 0.0 0.00 0.00 0.00 1004.8
20260505121628 0 0.0 0.0 0.00 0.00 0.00 1004.9
20260505121127 0 0.0 0.0 0.00 0.00 0.00 1004.8
20260505120021 0 0.0 0.0 0.00 0.00 0.00 1004.8
20260505115519 0 0.0 0.0 0.00 0.00 0.00 1004.6
20260505115020 0 0.0 0.0 0.00 0.00 0.00 1004.7
20260505115016 0 0.0 0.0 0.00 0.00 0.00 1004.7
20260505114622 0 0.0 0.0 0.00 0.00 0.00 1004.8
20260505113516 0 0.0 0.0 0.00 0.00 0.00 1004.7
20260505113014 0 0.0 0.0 0.00 0.00 0.00 1004.7
20260505112923 0 0.0 0.0 0.00 0.00 0.00 1004.5
20260505112527 0 0.0 0.0 0.00 0.00 0.00 1004.7
20260505112024 0 0.0 0.0 0.00 0.00 0.00 1004.6
20260505110914 0 0.0 0.0 0.00 0.00 0.00 1004.6
20260505110316 0 0.0 0.0 0.00 0.00 0.00 1004.6
20260505102120 71 125 3.5 9.6 0.00 0.00 0.00 83 1004.6
20260505101619 71 170 3.5 9.6 0.00 0.00 0.00 83 1004.4
20260505101124 71 217 4.3 10.4 0.00 0.00 0.00 83 1004.7
20260505101120 71 171 4.3 9.6 0.00 0.00 0.00 83 1004.5
20260505100120 71 142 4.3 13.9 0.00 0.00 0.00 83 1004.9
20260505095617 71 140 4.3 13.9 0.00 0.00 0.00 83 1004.9
20260505095119 71 273 4.3 13.9 0.00 0.00 0.00 83 1004.7
20260505094617 71 205 5.2 13.9 0.00 0.00 0.00 83 1004.9
20260505094117 71 101 5.2 12.2 0.00 0.00 0.00 83 1004.9
20260505093618 71 120 4.3 12.2 0.00 0.00 0.00 83 1004.9
20260505093117 71 231 3.5 16.5 0.00 0.00 0.00 83 1004.8
20260505092617 71 243 4.3 16.5 0.00 0.00 0.00 83 1004.8
20260505092123 71 217 4.3 16.5 0.00 0.00 0.00 83 1004.8
20260505092119 71 171 5.2 16.5 0.00 0.00 0.00 83 1004.9
20260505091118 71 226 4.3 11.3 0.00 0.00 0.00 83 1004.7
20260505090615 71 142 4.3 11.3 0.00 0.00 0.00 83 1004.8
20260505090120 71 122 5.2 11.3 0.00 0.00 0.00 83 1004.8
20260505090116 71 176 4.3 11.3 0.00 0.00 0.00 83 1004.8
20260505085116 71 137 5.2 11.3 0.00 0.00 0.00 83 1004.7
20260505084616 71 103 5.2 13.0 0.00 0.00 0.00 83 1004.8
20260505084115 71 227 5.2 13.0 0.00 0.00 0.00 83 1004.8
20260505083615 71 135 6.1 13.0 0.00 0.00 0.00 83 1004.9
20260505083115 71 140 6.1 13.0 0.00 0.00 0.00 83 1004.8
20260505082615 71 160 5.2 13.0 0.00 0.00 0.00 83 1004.7
20260505082238 71 159 4.3 12.2 0.00 0.00 0.00 83 1005.1
20260505082120 71 226 5.2 16.5 0.00 0.00 0.00 83 1005.1
20260505082116 71 198 5.2 16.5 0.00 0.00 0.00 83 1004.9
20260505081245 71 145 4.3 11.3 0.00 0.00 0.00 83 1005.4
20260505081234 71 264 4.3 11.3 0.00 0.00 0.00 83 1005.2
20260505080615 71 194 4.3 11.3 0.00 0.00 0.00 83 1005.1
20260505075114 71 231 4.3 10.4 0.00 0.00 0.00 83 1005.3
20260505074615 71 199 5.2 13.0 0.00 0.00 0.00 83 1005.4
20260505074115 71 114 5.2 13.0 0.00 0.00 0.00 83 1005.5
20260505073612 71 195 4.3 13.0 0.00 0.00 0.00 83 1005.5
20260505073114 71 204 4.3 13.9 0.00 0.00 0.00 83 1005.7
20260505072614 71 219 4.3 13.9 0.00 0.00 0.00 83 1005.7
20260505072113 71 136 5.2 13.9 0.00 0.00 0.00 83 1005.9
20260505071619 71 212 4.3 12.2 0.00 0.00 0.00 83 1006.0
20260505071613 71 143 5.2 13.9 0.00 0.00 0.00 83 1006.0
20260505070613 71 119 4.3 12.2 0.00 0.00 0.00 83 1006.0
20260505070112 71 218 3.5 11.3 0.00 0.00 0.00 83 1005.9
20260505065613 71 203 4.3 10.4 0.00 0.00 0.00 83 1006.2
20260505065112 71 184 4.3 13.9 0.00 0.00 0.00 83 1006.2
20260505064612 71 161 4.3 13.9 0.00 0.00 0.00 83 1006.1
20260505064112 71 141 4.3 11.3 0.00 0.00 0.00 83 1006.3
20260505063614 71 248 4.3 10.4 0.00 0.00 0.00 82 1006.3
20260505063609 71 142 3.5 10.4 0.00 0.00 0.00 83 1006.3
20260505062610 72 209 3.5 10.4 0.00 0.00 0.00 82 1006.4
20260505062108 72 221 3.5 10.4 0.00 0.00 0.00 82 1006.5
20260505061610 72 107 3.5 9.6 0.00 0.00 0.00 82 1006.5
20260505061109 72 101 3.5 9.6 0.00 0.00 0.00 82 1006.4
20260505060608 72 134 3.5 9.6 0.00 0.00 0.00 82 1006.4
20260505060109 72 91 3.5 10.4 0.00 0.00 0.00 82 1006.4
20260505055609 72 143 3.5 10.4 0.00 0.00 0.00 82 1006.4
20260505055110 72 71 3.5 11.3 0.00 0.00 0.00 82 1006.5
20260505054610 72 169 2.6 11.3 0.00 0.00 0.00 82 1006.5
20260505054110 72 184 2.6 8.7 0.00 0.00 0.00 81 1006.6
20260505053610 72 139 3.5 10.4 0.00 0.00 0.00 81 1006.7
20260505053109 72 134 3.5 10.4 0.00 0.00 0.00 81 1006.7
20260505052609 72 254 3.5 10.4 0.00 0.00 0.00 81 1006.7
20260505052109 72 250 3.5 10.4 0.00 0.00 0.00 81 1006.6
20260505051610 72 198 3.5 9.6 0.00 0.00 0.00 81 1006.6
20260505051109 72 143 3.5 8.7 0.00 0.00 0.00 80 1006.6
20260505050610 72 233 3.5 8.7 0.00 0.00 0.00 80 1006.5
20260505050109 72 192 3.5 8.7 0.00 0.00 0.00 80 1006.5
20260505041613 73 203 2.6 8.7 0.00 0.00 0.00 78 1007.0
20260505041606 73 105 2.6 8.7 0.00 0.00 0.00 78 1006.9
20260505041107 73 166 2.6 8.7 0.00 0.00 0.00 78 1007.0
20260505040731 73 160 3.5 8.7 0.00 0.00 0.00 77 1006.9
20260505035607 73 140 3.5 7.8 0.00 0.00 0.00 77 1006.6
20260505035103 73 128 3.5 7.8 0.00 0.00 0.00 77 1006.9
20260505034604 73 206 3.5 7.8 0.00 0.00 0.00 77 1006.8
20260505034105 73 206 3.5 9.6 0.00 0.00 0.00 76 1006.6
20260505033603 73 203 3.5 9.6 0.00 0.00 0.00 76 1006.6
20260505033109 74 108 3.5 9.6 0.00 0.00 0.00 76 1006.7
20260505032723 74 163 2.6 10.4 0.00 0.00 0.00 75 1006.9
20260505032609 74 166 2.6 9.6 0.00 0.00 0.00 75 1006.9
20260505032603 74 101 3.5 9.6 0.00 0.00 0.00 76 1006.7
20260505031103 74 121 3.5 10.4 0.00 0.00 0.00 75 1006.9
20260505030604 74 130 3.5 10.4 0.00 0.00 0.00 75 1006.9
20260505030104 74 181 4.3 10.4 0.00 0.00 0.00 75 1006.9
20260505025603 74 225 4.3 10.4 0.00 0.00 0.00 75 1006.7
20260505025104 74 120 3.5 10.4 0.00 0.00 0.00 74 1006.6
20260505024601 74 119 2.6 10.4 0.00 0.00 0.00 74 1006.7
20260505024103 74 152 2.6 11.3 0.00 0.00 0.00 74 1006.6
20260505023601 74 191 2.6 11.3 0.00 0.00 0.00 74 1006.5
20260505023100 74 107 3.5 11.3 0.00 0.00 0.00 74 1006.5
20260505022601 74 195 3.5 11.3 0.00 0.00 0.00 74 1006.4
20260505022101 74 134 3.5 8.7 0.00 0.00 0.00 74 1006.5
20260505021603 74 115 3.5 8.7 0.00 0.00 0.00 73 1006.4
20260505021102 74 150 3.5 7.8 0.00 0.00 0.00 73 1006.4
20260505020600 74 126 3.5 7.8 0.00 0.00 0.00 73 1006.4
20260505020104 75 147 2.6 9.6 0.00 0.00 0.00 72 1006.4
20260505020100 75 119 3.5 9.6 0.00 0.00 0.00 73 1006.4
20260505015717 75 154 2.6 7.0 0.00 0.00 0.00 72 1006.5
20260505014555 75 118 3.5 7.0 0.00 0.00 0.00 72 1006.4
20260505014056 75 108 2.6 7.0 0.00 0.00 0.00 72 1006.3
20260505013556 75 121 1.7 9.6 0.00 0.00 0.00 71 1006.3
20260505013055 75 129 1.7 9.6 0.00 0.00 0.00 71 1006.4
20260505012600 76 195 3.5 9.6 0.00 0.00 0.00 70 1006.3
20260505012554 76 188 2.6 9.6 0.00 0.00 0.00 70 1006.4
20260505011552 76 76 2.6 7.8 0.00 0.00 0.00 70 1006.4
20260505011051 76 112 2.6 9.6 0.00 0.00 0.00 69 1006.4
20260505010556 76 124 2.6 7.8 0.00 0.00 0.00 69 1006.4
20260505010551 76 169 2.6 9.6 0.00 0.00 0.00 69 1006.4
20260505005551 76 134 2.6 12.2 0.00 0.00 0.00 68 1006.5
20260505005051 77 75 2.6 12.2 0.00 0.00 0.00 68 1006.6
20260505004556 77 76 2.6 12.2 0.00 0.00 0.00 67 1006.6
20260505004550 77 127 2.6 12.2 0.00 0.00 0.00 68 1006.6
20260505003551 78 141 2.6 10.4 0.00 0.00 0.00 66 1006.6
20260505003053 78 107 2.6 10.4 0.00 0.00 0.00 66 1006.7
20260505002549 78 240 3.5 10.4 0.00 0.00 0.00 65 1006.7
20260505002050 78 154 3.5 10.4 0.00 0.00 0.00 65 1006.6
20260505001548 78 162 3.5 10.4 0.00 0.00 0.00 64 1006.8
20260505001048 78 77 4.3 12.2 0.00 0.00 0.00 65 1006.8
20260505000548 78 127 5.2 12.2 0.00 0.00 0.00 64 1006.7
20260505000048 78 127 4.3 12.2 0.00 0.00 0.00 64 1006.7
20260504235546 78 101 4.3 12.2 0.00 0.00 0.00 64 1006.8
20260504235046 79 70 3.5 12.2 0.00 0.00 0.00 63 1006.8
20260504234549 79 164 3.5 10.4 0.00 0.00 0.00 64 1006.9
20260504234046 79 123 3.5 13.0 0.00 0.00 0.00 63 1007.1
20260504233548 79 148 4.3 13.0 0.00 0.00 0.00 63 1007.0
20260504233048 79 133 5.2 13.0 0.00 0.00 0.00 62 1007.0
20260504232548 79 237 4.3 13.0 0.00 0.00 0.00 61 1007.0
20260504232047 80 118 4.3 13.0 0.00 0.00 0.00 62 1006.9
20260504231548 80 134 5.2 14.8 0.00 0.00 0.00 61 1007.0
20260504231047 80 128 5.2 14.8 0.00 0.00 0.00 61 1007.2
20260504230547 80 193 5.2 19.1 0.00 0.00 0.00 60 1007.3
20260504230054 80 205 6.1 13.9 0.00 0.00 0.00 61 1007.3
20260504230048 80 201 5.2 19.1 0.00 0.00 0.00 60 1007.3
20260504225052 80 217 6.1 13.9 0.00 0.00 0.00 59 1007.4
20260504225048 80 146 7.0 13.9 0.00 0.00 0.00 60 1007.5